Location: Washington
(38.8950°N, 77.0367°W)
Time: 01:26:31
(UTC-04:00)

N. Korean satellite - Visible Passes

Search period start: 19 August 2017 00:00
Search period end: 29 August 2017 00:00
Orbit: 462 x 516 km, 97.2° (Epoch: 18 August)

Date Brightness Start Highest point End Pass type
(mag) Time Alt. Az. Time Alt. Az. Time Alt. Az.
20 Aug 10.0 20:25:56 10° WSW 20:27:21 12° W 20:28:47 10° WNW visible
24 Aug 10.1 20:27:18 10° WSW 20:28:36 12° W 20:29:56 10° WNW visible
28 Aug 10.1 20:28:38 10° WSW 20:29:49 11° W 20:31:01 10° WNW visible
